Time,TemperatureF,DewpointF,PressureIn,WindDirection,WindDirectionDegrees,WindSpeedMPH,WindSpeedGustMPH,Humidity,HourlyPrecipIn,Conditions,Clouds,dailyrainin,SoftwareType,DateUTC
2013-02-27 00:02:00,23.5,9.0,29.49,NE,48,4.0,6.0,54,0.00,,,0.00,weatherlink.com 1.10,2013-02-27 09:02:00,
2013-02-27 00:17:00,23.3,9.0,29.48,NE,43,4.0,6.0,54,0.00,,,0.00,weatherlink.com 1.10,2013-02-27 09:17:00,
2013-02-27 00:32:00,23.1,9.0,29.48,NE,54,2.0,5.0,55,0.00,,,0.00,weatherlink.com 1.10,2013-02-27 09:32:00,
2013-02-27 00:47:00,23.0,9.0,29.48,ENE,65,4.0,6.0,55,0.00,,,0.00,weatherlink.com 1.10,2013-02-27 09:47:00,
2013-02-27 01:02:00,22.9,9.0,29.48,East,89,2.0,6.0,55,0.00,,,0.00,weatherlink.com 1.10,2013-02-27 10:02:00,
2013-02-27 01:18:00,23.1,9.0,29.48,ENE,68,3.0,6.0,55,0.00,,,0.00,weatherlink.com 1.10,2013-02-27 10:18:00,
2013-02-27 01:33:00,22.9,9.0,29.48,ENE,58,4.0,6.0,55,0.00,,,0.00,weatherlink.com 1.10,2013-02-27 10:33:00,
2013-02-27 01:48:00,23.2,9.0,29.47,NE,53,3.0,6.0,55,0.00,,,0.00,weatherlink.com 1.10,2013-02-27 10:48:00,
2013-02-27 02:03:00,23.2,9.0,29.47,NE,51,4.0,5.0,55,0.00,,,0.00,weatherlink.com 1.10,2013-02-27 11:03:00,
2013-02-27 02:18:00,23.4,9.0,29.47,NE,46,2.0,6.0,55,0.00,,,0.00,weatherlink.com 1.10,2013-02-27 11:18:00,
2013-02-27 02:33:00,23.3,9.0,29.46,NE,51,2.0,4.0,55,0.00,,,0.00,weatherlink.com 1.10,2013-02-27 11:33:00,
2013-02-27 02:48:00,23.3,9.0,29.46,NE,49,3.0,6.0,55,0.00,,,0.00,weatherlink.com 1.10,2013-02-27 11:48:00,
2013-02-27 03:03:00,23.2,9.0,29.46,NE,53,3.0,5.0,55,0.00,,,0.00,weatherlink.com 1.10,2013-02-27 12:03:00,
2013-02-27 03:18:00,22.6,9.0,29.45,NE,56,3.0,6.0,56,0.00,,,0.00,weatherlink.com 1.10,2013-02-27 12:18:00,
2013-02-27 03:33:00,22.9,9.0,29.45,NE,56,4.0,5.0,56,0.00,,,0.00,weatherlink.com 1.10,2013-02-27 12:33:00,
2013-02-27 03:48:00,22.8,9.0,29.45,NE,51,3.0,5.0,56,0.00,,,0.00,weatherlink.com 1.10,2013-02-27 12:48:00,
2013-02-27 04:03:00,22.0,9.0,29.44,NE,53,4.0,5.0,57,0.00,,,0.00,weatherlink.com 1.10,2013-02-27 13:03:00,
2013-02-27 04:18:00,22.3,9.0,29.44,NE,46,2.0,5.0,57,0.00,,,0.00,weatherlink.com 1.10,2013-02-27 13:18:00,
2013-02-27 04:33:00,23.9,10.0,29.44,East,79,4.0,7.0,55,0.00,,,0.00,weatherlink.com 1.10,2013-02-27 13:33:00,
2013-02-27 04:48:00,23.7,10.0,29.43,ENE,58,6.0,6.0,55,0.00,,,0.00,weatherlink.com 1.10,2013-02-27 13:48:00,
2013-02-27 05:03:00,23.1,9.0,29.43,NE,53,3.0,5.0,55,0.00,,,0.00,weatherlink.com 1.10,2013-02-27 14:03:00,
2013-02-27 05:18:00,23.4,9.0,29.43,NNE,33,2.0,6.0,55,0.00,,,0.00,weatherlink.com 1.10,2013-02-27 14:18:00,
2013-02-27 05:33:00,23.7,10.0,29.42,ENE,59,4.0,7.0,55,0.00,,,0.00,weatherlink.com 1.10,2013-02-27 14:33:00,
2013-02-27 05:48:00,23.9,9.0,29.42,ENE,58,5.0,7.0,54,0.00,,,0.00,weatherlink.com 1.10,2013-02-27 14:48:00,
2013-02-27 06:03:00,23.7,9.0,29.41,East,81,2.0,6.0,54,0.00,,,0.00,weatherlink.com 1.10,2013-02-27 15:03:00,
2013-02-27 06:18:00,23.6,9.0,29.41,ENE,68,4.0,7.0,55,0.00,,,0.00,weatherlink.com 1.10,2013-02-27 15:18:00,
2013-02-27 06:33:00,23.8,10.0,29.40,ENE,61,3.0,5.0,55,0.00,,,0.00,weatherlink.com 1.10,2013-02-27 15:33:00,
2013-02-27 06:48:00,23.3,9.0,29.40,NE,43,6.0,6.0,55,0.00,,,0.00,weatherlink.com 1.10,2013-02-27 15:48:00,
2013-02-27 07:03:00,23.3,10.0,29.40,NE,44,4.0,7.0,56,0.00,,,0.00,weatherlink.com 1.10,2013-02-27 16:03:00,
2013-02-27 07:18:00,23.8,10.0,29.40,ENE,67,4.0,7.0,55,0.00,,,0.00,weatherlink.com 1.10,2013-02-27 16:18:00,
2013-02-27 07:33:00,23.5,10.0,29.40,NE,56,3.0,6.0,56,0.00,,,0.00,weatherlink.com 1.10,2013-02-27 16:33:00,
2013-02-27 07:48:00,24.3,10.0,29.39,ENE,72,3.0,5.0,55,0.00,,,0.00,weatherlink.com 1.10,2013-02-27 16:48:00,
2013-02-27 08:03:00,22.2,9.0,29.39,NE,45,3.0,4.0,57,0.00,,,0.00,weatherlink.com 1.10,2013-02-27 17:03:00,
2013-02-27 08:18:00,21.7,9.0,29.39,ENE,62,4.0,8.0,59,0.00,,,0.00,weatherlink.com 1.10,2013-02-27 17:18:00,
2013-02-27 08:34:00,21.6,9.0,29.39,East,87,6.0,7.0,59,0.00,,,0.00,weatherlink.com 1.10,2013-02-27 17:34:00,
2013-02-27 08:48:00,22.7,9.0,29.39,ENE,60,3.0,5.0,57,0.00,,,0.00,weatherlink.com 1.10,2013-02-27 17:48:00,
2013-02-27 09:04:00,23.8,10.0,29.38,East,94,3.0,7.0,55,0.00,,,0.00,weatherlink.com 1.10,2013-02-27 18:04:00,
2013-02-27 09:19:00,22.3,9.0,29.38,ENE,57,4.0,5.0,57,0.00,,,0.00,weatherlink.com 1.10,2013-02-27 18:19:00,
2013-02-27 09:34:00,23.6,10.0,29.38,NE,48,5.0,7.0,56,0.00,,,0.00,weatherlink.com 1.10,2013-02-27 18:34:00,
2013-02-27 09:49:00,26.5,10.0,29.39,ENE,70,5.0,9.0,51,0.00,,,0.00,weatherlink.com 1.10,2013-02-27 18:49:00,
2013-02-27 10:04:00,26.2,10.0,29.39,NE,35,4.0,8.0,51,0.00,,,0.00,weatherlink.com 1.10,2013-02-27 19:04:00,
2013-02-27 10:19:00,26.4,11.0,29.38,NE,56,3.0,7.0,52,0.00,,,0.00,weatherlink.com 1.10,2013-02-27 19:19:00,
2013-02-27 10:34:00,28.1,11.0,29.38,ENE,58,5.0,7.0,49,0.00,,,0.00,weatherlink.com 1.10,2013-02-27 19:34:00,
2013-02-27 10:49:00,28.7,12.0,29.38,ESE,117,5.0,7.0,49,0.00,,,0.00,weatherlink.com 1.10,2013-02-27 19:49:00,
2013-02-27 11:04:00,29.1,12.0,29.39,ESE,105,4.0,8.0,49,0.00,,,0.00,weatherlink.com 1.10,2013-02-27 20:04:00,
2013-02-27 11:19:00,28.8,11.0,29.39,East,95,7.0,7.0,48,0.00,,,0.00,weatherlink.com 1.10,2013-02-27 20:19:00,
2013-02-27 11:49:00,29.0,12.0,29.39,SE,131,3.0,8.0,49,0.00,,,0.00,weatherlink.com 1.10,2013-02-27 20:49:00,
2013-02-27 12:04:00,29.3,12.0,29.39,ENE,78,5.0,6.0,48,0.00,,,0.00,weatherlink.com 1.10,2013-02-27 21:04:00,
2013-02-27 12:19:00,29.8,12.0,29.38,SE,142,4.0,6.0,48,0.00,,,0.00,weatherlink.com 1.10,2013-02-27 21:19:00,
2013-02-27 12:34:00,30.1,12.0,29.38,East,86,2.0,8.0,47,0.00,,,0.00,weatherlink.com 1.10,2013-02-27 21:34:00,
2013-02-27 12:49:00,30.3,12.0,29.38,SE,126,4.0,7.0,47,0.00,,,0.00,weatherlink.com 1.10,2013-02-27 21:49:00,
2013-02-27 13:04:00,30.4,12.0,29.38,East,92,2.0,7.0,47,0.00,,,0.00,weatherlink.com 1.10,2013-02-27 22:04:00,
2013-02-27 13:19:00,30.8,12.0,29.38,East,100,3.0,9.0,46,0.00,,,0.00,weatherlink.com 1.10,2013-02-27 22:19:00,
2013-02-27 13:34:00,31.1,12.0,29.38,East,99,1.0,8.0,46,0.00,,,0.00,weatherlink.com 1.10,2013-02-27 22:34:00,
2013-02-27 13:49:00,31.0,12.0,29.38,ENE,73,3.0,8.0,46,0.00,,,0.00,weatherlink.com 1.10,2013-02-27 22:49:00,
2013-02-27 14:04:00,31.3,13.0,29.37,South,170,2.0,7.0,46,0.00,,,0.00,weatherlink.com 1.10,2013-02-27 23:04:00,
2013-02-27 14:19:00,31.4,13.0,29.36,East,88,5.0,8.0,46,0.00,,,0.00,weatherlink.com 1.10,2013-02-27 23:19:00,
2013-02-27 14:34:00,31.6,13.0,29.36,East,91,4.0,8.0,47,0.00,,,0.00,weatherlink.com 1.10,2013-02-27 23:34:00,
2013-02-27 14:49:00,31.7,13.0,29.36,ESE,122,3.0,7.0,47,0.00,,,0.00,weatherlink.com 1.10,2013-02-27 23:49:00,
2013-02-27 15:04:00,31.7,13.0,29.35,ESE,103,7.0,8.0,46,0.00,,,0.00,weatherlink.com 1.10,2013-02-28 00:04:00,
2013-02-27 15:19:00,31.8,13.0,29.35,ENE,77,2.0,8.0,46,0.00,,,0.00,weatherlink.com 1.10,2013-02-28 00:19:00,
2013-02-27 15:34:00,31.9,14.0,29.35,ENE,75,2.0,6.0,47,0.00,,,0.00,weatherlink.com 1.10,2013-02-28 00:34:00,
2013-02-27 15:49:00,31.8,13.0,29.34,ESE,120,3.0,7.0,46,0.00,,,0.00,weatherlink.com 1.10,2013-02-28 00:49:00,
2013-02-27 16:04:00,31.8,13.0,29.34,ESE,118,3.0,6.0,46,0.00,,,0.00,weatherlink.com 1.10,2013-02-28 01:04:00,
2013-02-27 16:19:00,31.4,13.0,29.34,ENE,74,3.0,6.0,47,0.00,,,0.00,weatherlink.com 1.10,2013-02-28 01:19:00,
2013-02-27 16:34:00,31.3,13.0,29.33,East,79,3.0,6.0,47,0.00,,,0.00,weatherlink.com 1.10,2013-02-28 01:34:00,
2013-02-27 16:49:00,31.3,13.0,29.33,East,98,4.0,6.0,47,0.00,,,0.00,weatherlink.com 1.10,2013-02-28 01:49:00,
2013-02-27 17:04:00,31.2,13.0,29.33,East,84,3.0,6.0,47,0.00,,,0.00,weatherlink.com 1.10,2013-02-28 02:04:00,
2013-02-27 17:19:00,31.0,13.0,29.33,ENE,76,4.0,7.0,47,0.00,,,0.00,weatherlink.com 1.10,2013-02-28 02:19:00,
2013-02-27 17:34:00,31.0,12.0,29.33,East,94,5.0,7.0,46,0.00,,,0.00,weatherlink.com 1.10,2013-02-28 02:34:00,
2013-02-27 17:49:00,30.9,12.0,29.33,East,98,3.0,7.0,46,0.00,,,0.00,weatherlink.com 1.10,2013-02-28 02:49:00,
2013-02-27 18:04:00,30.8,12.0,29.33,ESE,106,2.0,8.0,46,0.00,,,0.00,weatherlink.com 1.10,2013-02-28 03:04:00,
2013-02-27 18:19:00,30.5,12.0,29.34,East,83,2.0,7.0,47,0.00,,,0.00,weatherlink.com 1.10,2013-02-28 03:19:00,
2013-02-27 18:34:00,30.5,12.0,29.34,ESE,113,2.0,6.0,46,0.00,,,0.00,weatherlink.com 1.10,2013-02-28 03:34:00,
2013-02-27 18:50:00,30.1,12.0,29.34,ESE,108,3.0,4.0,47,0.00,,,0.00,weatherlink.com 1.10,2013-02-28 03:50:00,
2013-02-27 19:05:00,29.4,12.0,29.34,East,92,1.0,2.0,48,0.00,,,0.00,weatherlink.com 1.10,2013-02-28 04:05:00,
2013-02-27 19:35:00,29.2,12.0,29.34,East,101,1.0,2.0,49,0.00,,,0.00,weatherlink.com 1.10,2013-02-28 04:35:00,
2013-02-27 19:50:00,27.6,11.0,29.34,ENE,58,0.0,2.0,51,0.00,,,0.00,weatherlink.com 1.10,2013-02-28 04:50:00,
2013-02-27 20:05:00,27.3,11.0,29.34,East,100,0.0,2.0,51,0.00,,,0.00,weatherlink.com 1.10,2013-02-28 05:05:00,
2013-02-27 20:20:00,26.5,11.0,29.34,East,100,0.0,0.0,53,0.00,,,0.00,weatherlink.com 1.10,2013-02-28 05:20:00,
2013-02-27 20:35:00,26.6,11.0,29.34,SSE,152,0.0,0.0,53,0.00,,,0.00,weatherlink.com 1.10,2013-02-28 05:35:00,
2013-02-27 20:50:00,27.8,11.0,29.35,East,93,0.0,2.0,50,0.00,,,0.00,weatherlink.com 1.10,2013-02-28 05:50:00,
2013-02-27 21:05:00,26.2,11.0,29.35,NE,37,0.0,3.0,52,0.00,,,0.00,weatherlink.com 1.10,2013-02-28 06:05:00,
2013-02-27 21:20:00,25.8,11.0,29.36,ENE,68,1.0,2.0,53,0.00,,,0.00,weatherlink.com 1.10,2013-02-28 06:20:00,
2013-02-27 21:35:00,26.8,11.0,29.36,East,81,0.0,1.0,51,0.00,,,0.00,weatherlink.com 1.10,2013-02-28 06:35:00,
2013-02-27 21:50:00,26.4,11.0,29.36,ENE,71,1.0,2.0,52,0.00,,,0.00,weatherlink.com 1.10,2013-02-28 06:50:00,
2013-02-27 22:05:00,25.9,10.0,29.37,ENE,74,0.0,0.0,52,0.00,,,0.00,weatherlink.com 1.10,2013-02-28 07:05:00,
2013-02-27 22:20:00,25.7,11.0,29.37,ESE,113,1.0,2.0,54,0.00,,,0.00,weatherlink.com 1.10,2013-02-28 07:20:00,
2013-02-27 22:35:00,27.0,11.0,29.37,ESE,118,4.0,7.0,52,0.00,,,0.00,weatherlink.com 1.10,2013-02-28 07:35:00,
2013-02-27 22:50:00,26.2,11.0,29.37,SSW,200,0.0,2.0,53,0.00,,,0.00,weatherlink.com 1.10,2013-02-28 07:50:00,
2013-02-27 23:05:00,25.5,11.0,29.38,ENE,72,0.0,0.0,54,0.00,,,0.00,weatherlink.com 1.10,2013-02-28 08:05:00,
2013-02-27 23:20:00,24.6,10.0,29.38,NNE,18,0.0,0.0,55,0.00,,,0.00,weatherlink.com 1.10,2013-02-28 08:20:00,
2013-02-27 23:35:00,24.2,10.0,29.38,North,354,0.0,1.0,56,0.00,,,0.00,weatherlink.com 1.10,2013-02-28 08:35:00,
2013-02-27 23:50:00,24.2,10.0,29.38,North,354,0.0,1.0,56,0.00,,,0.00,weatherlink.com 1.10,2013-02-28 08:50:00,